Location: Rumah Long Bangan
(2.8362°N, 113.7519°E)
Time: 05:21:36
(UTC+00:00)

Cosmos 1980 Rocket - Pass Details

Date: 24 October 2021
Orbit: 828 x 851 km, 71.0° (Epoch: 28 November)

Event Time Altitude Azimuth Distance (km) Brightness Sun altitude
Exits shadow 21:01:07 23° 252° (WSW) 1,709 3.3 -17.2°
Drops below altitude 10° 21:05:18 10° 204° (SSW) 2,452 4.5 -16.2°
Sets 21:08:13 0° 190° (S) 3,383 5.4 -15.5°
